Location: Dalton Gardens
(47.7327°N, 116.7697°W)
Time: 22:07:22
(UTC+00:00)

Tiangong - Visible Passes

Search period start: 26 November 2022 00:00
Search period end: 06 December 2022 00:00
Orbit: 387 x 394 km, 41.5° (Epoch: 26 November)

Date Brightness Start Highest point End Pass type
(mag) Time Alt. Az. Time Alt. Az. Time Alt. Az.
01 Dec 0.6 02:21:43 10° SSW 02:22:37 14° SSW 02:22:37 14° SSW visible
02 Dec 0.2 01:24:31 10° SSW 01:26:21 14° SSE 01:27:30 12° SE visible
03 Dec -0.3 02:02:20 10° SW 02:04:39 23° S 02:04:39 23° S visible
04 Dec 0.0 01:04:46 10° SSW 01:07:09 19° SSE 01:09:26 10° ESE visible
04 Dec 0.8 02:40:51 10° WSW 02:41:45 16° SW 02:41:45 16° SW visible
05 Dec -0.5 01:43:00 10° SW 01:45:44 26° S 01:46:31 23° SSE visible
